Retour au catalogue

COSMOS 839 DEB

ActifUNKNOWN
NORAD 10445·DEBRIS·🇷🇺 Russia

Lancé Jul 8, 1976 depuis Plesetsk Cosmodrome

Loading…

Prochains Passages (prochaines 24 heures)

TLE

FraisSource: Space-Track

Époque: Sep 13, 2026, 10:15 UTC

1 10445U 76067W   26256.42764527 -.00000265  00000-0 -12080-2 0  9996
2 10445  65.9307  46.5263 0662966 294.6930  87.6824 12.09326574214775

Suivez COSMOS 839 DEB en temps réel avec AllMySat

Download on the App Store